This demonstration page uses our WeatherBlox Daily Observations layout. Learn more.

Left ArrowRight Arrow

Hourly Observations for June 18, 2021

Temp ( °F °C ) Dew Point ( °F °C ) Humidity (%) Winds ( mph kmh ) Pressure ( in mb ) Visibility ( mi km ) Precip ( " mm )
12:15 am 00:15 Clear 72 22 61 16 69 69 N N/A 29.97 1015 10 16 N/A
12:35 am 00:35 Partly Cloudy 72 22 61 16 69 69 N N/A 29.99 1016 10 16 N/A
12:55 am 00:55 Partly Cloudy 68 20 64 18 88 88 N N/A 29.99 1016 10 16 N/A
1:15 am 01:15 Clear 66 19 64 18 94 94 N N/A 29.97 1015 10 16 N/A
1:35 am 01:35 Clear 68 20 63 17 83 83 N N/A 29.96 1014 10 16 N/A
1:55 am 01:55 Clear 68 20 61 16 78 78 N N/A 29.96 1014 10 16 N/A
2:15 am 02:15 Clear 68 20 61 16 78 78 N N/A 29.94 1014 10 16 N/A
2:35 am 02:35 Clear 70 21 63 17 78 78 S 8 13 29.92 1013 10 16 N/A
2:55 am 02:55 Clear 68 20 63 17 83 83 N N/A 29.91 1013 10 16 N/A
3:15 am 03:15 Clear 68 20 63 17 83 83 N N/A 29.90 1012 10 16 N/A
3:35 am 03:35 Clear 68 20 63 17 83 83 N N/A 29.90 1012 10 16 N/A
3:55 am 03:55 Clear 68 20 63 17 83 83 N N/A 29.90 1012 10 16 N/A
4:15 am 04:15 Clear 68 20 63 17 83 83 N N/A 29.90 1012 10 16 N/A
4:35 am 04:35 Clear 68 20 63 17 83 83 N N/A 29.90 1012 10 16 N/A
4:55 am 04:55 Clear 68 20 63 17 83 83 N N/A 29.90 1012 10 16 N/A
5:15 am 05:15 Clear 68 20 63 17 83 83 N N/A 29.89 1012 10 16 N/A
5:35 am 05:35 Clear 68 20 64 18 88 88 N N/A 29.90 1012 10 16 N/A
5:55 am 05:55 Clear 68 20 64 18 88 88 N N/A 29.90 1012 10 16 N/A
6:15 am 06:15 Sunny 68 20 64 18 88 88 N N/A 29.90 1012 10 16 N/A
6:35 am 06:35 Sunny 68 20 64 18 88 88 N N/A 29.90 1012 10 16 N/A
6:55 am 06:55 Sunny 68 20 64 18 88 88 N N/A 29.90 1012 10 16 N/A
7:15 am 07:15 Sunny 68 20 66 19 94 94 N N/A 29.90 1012 10 16 N/A
7:35 am 07:35 Sunny 68 20 66 19 94 94 N N/A 29.90 1012 10 16 N/A
7:55 am 07:55 Sunny 68 20 66 19 94 94 S 9 15 29.90 1012 10 16 N/A
8:15 am 08:15 Sunny 70 21 66 19 88 88 N N/A 29.90 1012 10 16 N/A
8:35 am 08:35 Partly Cloudy 72 22 68 20 88 88 S 7 11 29.90 1013 10 16 N/A
8:55 am 08:55 Cloudy 72 22 68 20 88 88 S 9 15 29.90 1013 10 16 N/A
9:15 am 09:15 Mostly Cloudy 72 22 68 20 88 88 N N/A 29.91 1013 10 16 N/A
9:35 am 09:35 Mostly Cloudy 72 22 70 21 94 94 N N/A 29.93 1014 10 16 N/A
9:55 am 09:55 Mostly Cloudy 70 21 70 21 100 100 N N/A 29.94 1014 5 8 N/A
10:15 am 10:15 Mostly Cloudy 70 21 70 21 100 100 N N/A 29.91 1013 10 16 N/A
10:35 am 10:35 Partly Cloudy 72 22 72 22 100 100 N N/A 29.90 1013 10 16 N/A
10:55 am 10:55 Sunny 72 22 72 22 100 100 N N/A 29.86 1011 10 16 N/A
11:15 am 11:15 Mostly Cloudy 73 23 73 23 100 100 N N/A 29.85 1011 10 16 N/A
11:35 am 11:35 Partly Cloudy 77 25 75 24 94 94 SE 8 13 29.83 1010 10 16 N/A
11:55 am 11:55 Sunny 81 27 77 25 89 89 SSE 14 22 29.82 1010 10 16 N/A
12:15 pm 12:15 Sunny 82 28 77 25 84 84 SSE 10 17 29.82 1010 10 16 N/A
12:35 pm 12:35 Sunny 84 29 77 25 79 79 S 13 20 29.81 1010 10 16 N/A
12:55 pm 12:55 Sunny 86 30 79 26 79 79 S 13 20 29.83 1010 10 16 N/A
1:15 pm 13:15 Sunny 88 31 77 25 70 70 SSW 14 22 29.83 1010 10 16 N/A
1:35 pm 13:35 Sunny 88 31 79 26 75 75 S 12 19 29.82 1010 10 16 N/A
1:55 pm 13:55 Sunny 90 32 79 26 71 71 S 15 24 29.80 1009 10 16 N/A
2:15 pm 14:15 Sunny 90 32 79 26 71 71 S 17 28 29.79 1009 10 16 N/A
2:35 pm 14:35 Sunny 90 32 79 26 71 71 SSW 15 24 29.80 1009 10 16 N/A
2:55 pm 14:55 Partly Cloudy 90 32 79 26 71 71 SSW 22 35 29.79 1009 10 16 N/A
3:15 pm 15:15 Mostly Cloudy 90 32 79 26 71 71 SW 17 28 29.79 1009 10 16 N/A
3:35 pm 15:35 Mostly Cloudy N/A N/A N/A SW 21 33 N/A 10 16 N/A
3:55 pm 15:55 Partly Cloudy 91 33 79 26 67 67 SW 20 31 29.75 1007 10 16 N/A
4:15 pm 16:15 Sunny 91 33 79 26 67 67 SW 20 31 29.75 1007 10 16 N/A
4:35 pm 16:35 Partly Cloudy 91 33 77 25 63 63 SW 14 22 29.74 1007 10 16 N/A
4:55 pm 16:55 Mostly Cloudy 90 32 77 25 67 67 SW 15 24 29.73 1007 10 16 N/A
5:15 pm 17:15 Mostly Cloudy 91 33 77 25 63 63 SW 17 28 29.74 1007 10 16 N/A
5:35 pm 17:35 Cloudy 90 32 77 25 67 67 SW 15 24 29.74 1007 10 16 N/A
5:55 pm 17:55 Mostly Cloudy 91 33 79 26 67 67 SW 18 30 29.74 1007 10 16 N/A
6:15 pm 18:15 Partly Cloudy 91 33 77 25 63 63 SW 14 22 29.75 1007 10 16 N/A
6:35 pm 18:35 Partly Cloudy 90 32 77 25 67 67 SW 12 19 29.74 1007 10 16 N/A
6:55 pm 18:55 Mostly Cloudy 88 31 77 25 70 70 SW 20 31 29.73 1007 10 16 N/A
7:15 pm 19:15 Cloudy 79 26 79 26 100 100 WNW 15 24 29.79 1009 1 2 N/A
7:26 pm 19:26 undefined N/A N/A N/A SW 23 37 N/A N/A N/A
7:55 pm 19:55 undefined 75 24 75 24 100 100 undefined N/A N/A N/A N/A
8:15 pm 20:15 undefined N/A N/A N/A undefined N/A N/A N/A N/A
8:35 pm 20:35 undefined N/A N/A N/A undefined N/A N/A N/A N/A
8:55 pm 20:55 undefined N/A N/A N/A undefined N/A N/A N/A N/A
9:15 pm 21:15 undefined N/A N/A N/A undefined N/A N/A N/A N/A
9:35 pm 21:35 undefined N/A N/A N/A undefined N/A N/A N/A N/A
9:55 pm 21:55 undefined N/A N/A N/A undefined N/A N/A N/A N/A
10:15 pm 22:15 undefined N/A N/A N/A undefined N/A N/A N/A N/A
10:35 pm 22:35 undefined N/A N/A N/A undefined N/A N/A N/A N/A
10:55 pm 22:55 undefined N/A N/A N/A undefined N/A N/A N/A N/A
11:15 pm 23:15 undefined N/A N/A N/A undefined N/A N/A N/A N/A
11:35 pm 23:35 undefined N/A N/A N/A undefined N/A N/A N/A N/A
11:55 pm 23:55 undefined N/A N/A N/A undefined N/A N/A N/A N/A

Powered by AerisWeather